QPF
0.02 0.01 0.01 0.01 0.01 0.01 0.01 0.03 0.02 0.02 0.02 0.02 0.02 0.05 0.04 0.03 0.05 0.04 0.03 0.02 0.02 0.02 0.01 0.02 0.03 0.03 0.04 0.03 0.03 0.03 0.02 0.02 0.01 0.01 0.02 0.02 0.02 0.03 0.03 0.02 0.01 0.01 0.01
0.01 0.02 0.01 0.02 0.02 0.01 0.01 0.02 0.02 0.02 0.02 0.02 0.02 0.04 0.02 0.03 0.03 0.04 0.03 0.02 0.03 0.02 0.02 0.03 0.04 0.05 0.04 0.04 0.04 0.04 0.03 0.03 0.02 0.01 0.01 0.01 0.02 0.02 0.02 0.02 0.02 0.02 0.02
0.01 0.01 0.02 0.03 0.04 0.03 0.02 0.03 0.02 0.01 0.01 0.00 0.01 0.01 0.01 0.02 0.02 0.04 0.05 0.03 0.02 0.03 0.04 0.04 0.05 0.05 0.03 0.03 0.04 0.05 0.05 0.04 0.03 0.02 0.01 0.01 0.02 0.02 0.02 0.01 0.02 0.03 0.03
0.02 0.02 0.02 0.03 0.03 0.02 0.02 0.03 0.02 0.02 0.01 0.01 0.01 0.01 0.01 0.01 0.02 0.04 0.04 0.04 0.06 0.07 0.04 0.05 0.05 0.04 0.05 0.06 0.05 0.05 0.05 0.06 0.04 0.04 0.03 0.02 0.01 0.01 0.01 0.01 0.01 0.02 0.03
0.02 0.02 0.02 0.02 0.02 0.02 0.03 0.03 0.02 0.02 0.02 0.02 0.01 0.01 0.01 0.01 0.02 0.02 0.03 0.05 0.08 0.08 0.07 0.06 0.06 0.05 0.06 0.07 0.08 0.07 0.07 0.07 0.06 0.05 0.04 0.03 0.02 0.01 0.01 0.01 0.01 0.01 0.02
0.03 0.03 0.03 0.02 0.02 0.03 0.04 0.03 0.03 0.03 0.03 0.03 0.03 0.03 0.03 0.03 0.03 0.02 0.04 0.05 0.06 0.08 0.08 0.08 0.06 0.06 0.06 0.08 0.08 0.08 0.08 0.07 0.06 0.06 0.04 0.03 0.03 0.02 0.02 0.02 0.01 0.01 0.01
0.01 0.01 0.02 0.03 0.03 0.03 0.03 0.03 0.03 0.03 0.03 0.04 0.05 0.05 0.03 0.03 0.05 0.05 0.05 0.06 0.05 0.07 0.09 0.07 0.06 0.05 0.04 0.04 0.06 0.07 0.08 0.09 0.09 0.09 0.08 0.07 0.06 0.06 0.05 0.04 0.02 0.02 0.02
0.01 0.01 0.01 0.01 0.02 0.02 0.02 0.03 0.03 0.04 0.04 0.05 0.05 0.05 0.04 0.05 0.06 0.05 0.06 0.07 0.05 0.06 0.07 0.06 0.04 0.04 0.04 0.04 0.05 0.05 0.05 0.07 0.08 0.09 0.09 0.11 0.10 0.08 0.07 0.06 0.04 0.03 0.02
0.01 0.01 0.00 0.01 0.01 0.01 0.02 0.02 0.02 0.03 0.04 0.04 0.05 0.05 0.06 0.05 0.04 0.05 0.06 0.05 0.05 0.06 0.05 0.05 0.05 0.04 0.04 0.03 0.05 0.06 0.04 0.03 0.05 0.06 0.06 0.07 0.07 0.07 0.06 0.06 0.05 0.04 0.04
0.02 0.01 0.00 0.00 0.01 0.02 0.02 0.02 0.01 0.02 0.03 0.03 0.04 0.04 0.04 0.04 0.04 0.04 0.05 0.04 0.03 0.04 0.04 0.05 0.04 0.04 0.04 0.04 0.06 0.06 0.04 0.04 0.04 0.04 0.04 0.05 0.04 0.04 0.03 0.03 0.04 0.04 0.05
0.02 0.02 0.01 0.01 0.01 0.01 0.02 0.02 0.01 0.01 0.01 0.02 0.02 0.03 0.04 0.03 0.04 0.04 0.03 0.03 0.04 0.05 0.04 0.03 0.02 0.02 0.03 0.04 0.04 0.05 0.04 0.04 0.04 0.03 0.04 0.04 0.04 0.04 0.03 0.03 0.04 0.04 0.04
0.02 0.02 0.01 0.01 0.01 0.02 0.02 0.01 0.01 0.01 0.01 0.02 0.02 0.02 0.03 0.02 0.02 0.03 0.03 0.03 0.04 0.04 0.03 0.02 0.02 0.03 0.03 0.05 0.04 0.04 0.04 0.07 0.06 0.05 0.04 0.04 0.04 0.03 0.03 0.03 0.04 0.05 0.06
0.04 0.02 0.02 0.02 0.02 0.03 0.02 0.02 0.03 0.02 0.02 0.02 0.02 0.02 0.03 0.02 0.03 0.04 0.04 0.05 0.03 0.03 0.03 0.03 0.03 0.04 0.05 0.06 0.04 0.03 0.04 0.05 0.05 0.05 0.04 0.03 0.03 0.03 0.02 0.03 0.03 0.03 0.04
0.04 0.01 0.02 0.02 0.02 0.03 0.02 0.03 0.03 0.03 0.03 0.03 0.02 0.02 0.02 0.02 0.02 0.03 0.05 0.07 0.04 0.02 0.02 0.03 0.03 0.03 0.03 0.04 0.05 0.06 0.05 0.04 0.04 0.05 0.05 0.05 0.04 0.03 0.03 0.03 0.02 0.02 0.02
0.02 0.02 0.03 0.03 0.03 0.02 0.03 0.03 0.03 0.03 0.03 0.03 0.04 0.04 0.02 0.02 0.03 0.03 0.04 0.05 0.04 0.03 0.02 0.02 0.03 0.03 0.03 0.04 0.05 0.05 0.03 0.02 0.01 0.02 0.03 0.03 0.03 0.02 0.02 0.02 0.02 0.01 0.02
0.03 0.04 0.05 0.04 0.03 0.03 0.03 0.04 0.03 0.03 0.03 0.03 0.04 0.05 0.04 0.04 0.04 0.04 0.04 0.04 0.04 0.05 0.04 0.02 0.03 0.04 0.05 0.06 0.06 0.04 0.03 0.02 0.02 0.02 0.02 0.02 0.02 0.01 0.01 0.01 0.01 0.01 0.01
0.03 0.03 0.04 0.04 0.04 0.03 0.04 0.04 0.03 0.04 0.04 0.04 0.04 0.04 0.05 0.05 0.05 0.05 0.04 0.04 0.04 0.05 0.05 0.03 0.04 0.05 0.08 0.06 0.06 0.05 0.03 0.02 0.01 0.01 0.01 0.02 0.01 0.02 0.02 0.02 0.01 0.01 0.01
0.05 0.05 0.05 0.05 0.05 0.04 0.04 0.04 0.04 0.04 0.05 0.04 0.04 0.04 0.04 0.04 0.04 0.04 0.04 0.04 0.05 0.05 0.05 0.04 0.04 0.06 0.07 0.06 0.05 0.04 0.03 0.03 0.02 0.02 0.02 0.02 0.01 0.01 0.01 0.01 0.01 0.01 0.01
0.07 0.05 0.05 0.05 0.05 0.04 0.02 0.02 0.02 0.03 0.04 0.04 0.04 0.04 0.05 0.06 0.05 0.05 0.06 0.05 0.06 0.07 0.06 0.05 0.04 0.06 0.05 0.05 0.05 0.06 0.04 0.03 0.03 0.04 0.04 0.04 0.04 0.03 0.02 0.01 0.01 0.01 0.01
0.04 0.03 0.03 0.02 0.02 0.02 0.02 0.02 0.02 0.03 0.03 0.04 0.04 0.03 0.04 0.05 0.05 0.07 0.07 0.07 0.08 0.07 0.07 0.06 0.04 0.05 0.04 0.04 0.06 0.06 0.04 0.02 0.03 0.04 0.05 0.06 0.06 0.05 0.04 0.03 0.03 0.02 0.01
0.02 0.02 0.02 0.02 0.02 0.01 0.01 0.02 0.03 0.03 0.03 0.03 0.02 0.02 0.03 0.05 0.06 0.07 0.06 0.06 0.07 0.07 0.07 0.06 0.05 0.04 0.03 0.03 0.05 0.05 0.05 0.05 0.04 0.04 0.05 0.05 0.05 0.04 0.04 0.03 0.03 0.02 0.02
0.04 0.02 0.02 0.02 0.02 0.01 0.02 0.02 0.02 0.02 0.02 0.02 0.02 0.03 0.03 0.05 0.05 0.05 0.05 0.05 0.05 0.04 0.04 0.04 0.04 0.05 0.04 0.04 0.05 0.06 0.05 0.05 0.04 0.03 0.05 0.05 0.05 0.05 0.04 0.03 0.03 0.03 0.02
0.05 0.05 0.03 0.03 0.03 0.03 0.03 0.03 0.03 0.02 0.02 0.02 0.02 0.03 0.02 0.03 0.04 0.03 0.03 0.04 0.04 0.04 0.04 0.04 0.03 0.03 0.05 0.05 0.06 0.05 0.05 0.04 0.04 0.04 0.06 0.06 0.06 0.04 0.03 0.03 0.04 0.03 0.03
0.11 0.12 0.11 0.08 0.08 0.07 0.07 0.07 0.07 0.06 0.05 0.05 0.04 0.04 0.04 0.04 0.03 0.03 0.03 0.03 0.03 0.03 0.04 0.04 0.03 0.03 0.04 0.05 0.05 0.05 0.04 0.04 0.03 0.03 0.04 0.05 0.06 0.05 0.04 0.04 0.05 0.05 0.04
0.17 0.19 0.19 0.18 0.15 0.14 0.13 0.11 0.09 0.07 0.07 0.06 0.06 0.05 0.04 0.04 0.04 0.04 0.04 0.03 0.03 0.03 0.04 0.05 0.04 0.04 0.04 0.04 0.05 0.04 0.03 0.03 0.03 0.02 0.03 0.05 0.06 0.06 0.06 0.05 0.05 0.05 0.05
0.23 0.25 0.28 0.32 0.30 0.24 0.18 0.11 0.09 0.07 0.06 0.04 0.04 0.04 0.04 0.04 0.05 0.05 0.04 0.04 0.04 0.04 0.06 0.06 0.06 0.06 0.06 0.06 0.05 0.04 0.03 0.03 0.02 0.02 0.02 0.03 0.04 0.05 0.05 0.05 0.04 0.04 0.04
MSLP
1013.36 1013.65 1013.88 1014.07 1014.25 1014.47 1014.73 1015.03 1015.36 1015.69 1016.00 1016.24 1016.43 1016.54 1016.60 1016.62 1016.63 1016.64 1016.69 1016.77 1016.88 1017.04 1017.21 1017.41 1017.61 1017.80 1017.98 1018.13 1018.24 1018.34 1018.40 1018.46 1018.51 1018.57 1018.65 1018.75 1018.87 1018.98 1019.09 1019.17 1019.23 1019.26 1019.27
1012.93 1013.23 1013.48 1013.70 1013.92 1014.17 1014.47 1014.82 1015.19 1015.57 1015.93 1016.23 1016.45 1016.59 1016.65 1016.65 1016.62 1016.57 1016.54 1016.56 1016.62 1016.74 1016.91 1017.12 1017.35 1017.58 1017.79 1017.97 1018.10 1018.18 1018.24 1018.27 1018.30 1018.35 1018.42 1018.52 1018.64 1018.76 1018.88 1018.97 1019.03 1019.05 1019.06
1012.39 1012.71 1013.00 1013.26 1013.54 1013.84 1014.19 1014.58 1015.00 1015.43 1015.83 1016.17 1016.43 1016.59 1016.66 1016.64 1016.57 1016.46 1016.36 1016.30 1016.29 1016.36 1016.51 1016.72 1016.96 1017.22 1017.47 1017.67 1017.83 1017.92 1017.98 1018.00 1018.02 1018.05 1018.12 1018.21 1018.33 1018.46 1018.58 1018.68 1018.75 1018.77 1018.77
1011.76 1012.11 1012.45 1012.77 1013.11 1013.48 1013.88 1014.31 1014.77 1015.23 1015.66 1016.04 1016.33 1016.51 1016.59 1016.57 1016.46 1016.30 1016.14 1016.00 1015.93 1015.94 1016.04 1016.22 1016.46 1016.74 1017.01 1017.24 1017.42 1017.54 1017.60 1017.63 1017.65 1017.67 1017.73 1017.82 1017.93 1018.06 1018.19 1018.29 1018.36 1018.39 1018.38
1011.09 1011.47 1011.85 1012.24 1012.65 1013.08 1013.53 1014.01 1014.49 1014.97 1015.42 1015.82 1016.13 1016.35 1016.44 1016.43 1016.31 1016.12 1015.91 1015.71 1015.57 1015.51 1015.54 1015.68 1015.90 1016.16 1016.43 1016.68 1016.89 1017.03 1017.11 1017.16 1017.18 1017.21 1017.26 1017.34 1017.45 1017.57 1017.69 1017.79 1017.85 1017.88 1017.87
1010.41 1010.81 1011.24 1011.69 1012.17 1012.66 1013.16 1013.66 1014.16 1014.65 1015.11 1015.52 1015.86 1016.10 1016.23 1016.24 1016.14 1015.95 1015.72 1015.47 1015.26 1015.13 1015.09 1015.16 1015.32 1015.55 1015.80 1016.05 1016.26 1016.42 1016.53 1016.60 1016.64 1016.67 1016.72 1016.80 1016.89 1017.00 1017.10 1017.19 1017.24 1017.26 1017.24
1009.76 1010.16 1010.63 1011.14 1011.67 1012.22 1012.76 1013.28 1013.79 1014.28 1014.74 1015.16 1015.52 1015.80 1015.97 1016.03 1015.97 1015.81 1015.58 1015.31 1015.05 1014.85 1014.73 1014.72 1014.80 1014.96 1015.17 1015.39 1015.60 1015.77 1015.90 1015.98 1016.05 1016.10 1016.16 1016.23 1016.31 1016.39 1016.47 1016.53 1016.57 1016.57 1016.54
1009.16 1009.55 1010.04 1010.59 1011.17 1011.76 1012.33 1012.87 1013.39 1013.88 1014.34 1014.77 1015.15 1015.47 1015.70 1015.82 1015.83 1015.71 1015.50 1015.24 1014.95 1014.68 1014.49 1014.37 1014.36 1014.43 1014.57 1014.74 1014.93 1015.10 1015.24 1015.35 1015.44 1015.52 1015.59 1015.66 1015.73 1015.80 1015.85 1015.89 1015.89 1015.87 1015.83
1008.63 1009.01 1009.50 1010.07 1010.68 1011.29 1011.89 1012.44 1012.96 1013.45 1013.91 1014.35 1014.76 1015.12 1015.41 1015.61 1015.69 1015.64 1015.48 1015.22 1014.92 1014.61 1014.34 1014.13 1014.01 1013.98 1014.03 1014.14 1014.28 1014.44 1014.59 1014.73 1014.84 1014.95 1015.04 1015.12 1015.20 1015.25 1015.29 1015.30 1015.28 1015.24 1015.18
1008.19 1008.53 1009.01 1009.57 1010.20 1010.82 1011.42 1011.99 1012.50 1012.98 1013.45 1013.89 1014.33 1014.73 1015.09 1015.35 1015.51 1015.54 1015.44 1015.22 1014.92 1014.58 1014.25 1013.95 1013.73 1013.60 1013.56 1013.59 1013.68 1013.81 1013.96 1014.11 1014.26 1014.40 1014.53 1014.64 1014.72 1014.78 1014.81 1014.81 1014.78 1014.72 1014.65
1007.84 1008.13 1008.58 1009.12 1009.73 1010.35 1010.95 1011.50 1012.01 1012.49 1012.95 1013.40 1013.85 1014.29 1014.69 1015.03 1015.27 1015.37 1015.33 1015.16 1014.89 1014.54 1014.16 1013.80 1013.50 1013.27 1013.13 1013.09 1013.12 1013.21 1013.35 1013.52 1013.69 1013.87 1014.04 1014.18 1014.29 1014.37 1014.41 1014.41 1014.38 1014.32 1014.25
1007.57 1007.82 1008.22 1008.72 1009.30 1009.89 1010.46 1011.00 1011.50 1011.96 1012.40 1012.85 1013.31 1013.77 1014.21 1014.60 1014.90 1015.08 1015.11 1015.00 1014.76 1014.43 1014.04 1013.64 1013.27 1012.97 1012.75 1012.63 1012.60 1012.65 1012.77 1012.93 1013.13 1013.34 1013.54 1013.72 1013.88 1013.99 1014.05 1014.07 1014.06 1014.01 1013.94
1007.37 1007.58 1007.93 1008.38 1008.90 1009.45 1009.98 1010.49 1010.95 1011.39 1011.81 1012.24 1012.70 1013.16 1013.62 1014.04 1014.40 1014.63 1014.74 1014.69 1014.51 1014.22 1013.85 1013.44 1013.04 1012.68 1012.41 1012.22 1012.13 1012.13 1012.22 1012.37 1012.57 1012.80 1013.03 1013.25 1013.44 1013.59 1013.69 1013.74 1013.75 1013.72 1013.68
1007.23 1007.40 1007.70 1008.09 1008.55 1009.04 1009.52 1009.97 1010.39 1010.79 1011.18 1011.59 1012.02 1012.47 1012.93 1013.37 1013.76 1014.05 1014.22 1014.25 1014.14 1013.91 1013.59 1013.20 1012.80 1012.43 1012.11 1011.87 1011.72 1011.68 1011.72 1011.85 1012.03 1012.26 1012.51 1012.75 1012.97 1013.15 1013.28 1013.36 1013.40 1013.40 1013.38
1007.09 1007.24 1007.49 1007.83 1008.23 1008.65 1009.07 1009.47 1009.84 1010.19 1010.54 1010.91 1011.30 1011.73 1012.17 1012.62 1013.02 1013.36 1013.59 1013.70 1013.67 1013.52 1013.27 1012.94 1012.57 1012.20 1011.87 1011.60 1011.41 1011.32 1011.31 1011.39 1011.54 1011.75 1011.98 1012.22 1012.45 1012.64 1012.80 1012.90 1012.97 1012.99 1013.00
1006.89 1007.04 1007.27 1007.57 1007.91 1008.27 1008.64 1008.98 1009.30 1009.60 1009.90 1010.22 1010.58 1010.97 1011.39 1011.82 1012.24 1012.60 1012.89 1013.07 1013.13 1013.07 1012.90 1012.65 1012.35 1012.02 1011.70 1011.42 1011.20 1011.06 1011.01 1011.03 1011.13 1011.29 1011.49 1011.70 1011.91 1012.10 1012.25 1012.36 1012.43 1012.48 1012.50
1006.55 1006.73 1006.96 1007.24 1007.55 1007.88 1008.20 1008.50 1008.77 1009.03 1009.29 1009.57 1009.88 1010.23 1010.62 1011.03 1011.44 1011.83 1012.15 1012.39 1012.54 1012.57 1012.50 1012.34 1012.12 1011.85 1011.57 1011.31 1011.09 1010.92 1010.83 1010.80 1010.84 1010.94 1011.08 1011.24 1011.40 1011.55 1011.68 1011.77 1011.84 1011.88 1011.91
1006.04 1006.26 1006.52 1006.81 1007.11 1007.42 1007.72 1008.00 1008.25 1008.48 1008.71 1008.95 1009.22 1009.54 1009.89 1010.27 1010.67 1011.06 1011.41 1011.70 1011.91 1012.02 1012.05 1011.99 1011.85 1011.67 1011.45 1011.23 1011.03 1010.86 1010.74 1010.68 1010.67 1010.71 1010.78 1010.88 1010.98 1011.07 1011.15 1011.20 1011.24 1011.26 1011.28
1005.33 1005.61 1005.91 1006.23 1006.56 1006.88 1007.19 1007.46 1007.71 1007.93 1008.14 1008.36 1008.60 1008.89 1009.20 1009.56 1009.93 1010.31 1010.66 1010.97 1011.23 1011.41 1011.51 1011.54 1011.50 1011.40 1011.27 1011.12 1010.96 1010.82 1010.71 1010.64 1010.60 1010.59 1010.61 1010.64 1010.67 1010.70 1010.72 1010.72 1010.72 1010.71 1010.72
1004.46 1004.79 1005.14 1005.51 1005.88 1006.24 1006.57 1006.86 1007.12 1007.35 1007.56 1007.78 1008.01 1008.26 1008.55 1008.87 1009.21 1009.56 1009.91 1010.22 1010.49 1010.71 1010.88 1010.98 1011.02 1011.02 1010.97 1010.90 1010.82 1010.74 1010.67 1010.61 1010.57 1010.55 1010.53 1010.52 1010.50 1010.47 1010.44 1010.39 1010.34 1010.30 1010.28
1003.53 1003.89 1004.29 1004.70 1005.12 1005.51 1005.88 1006.20 1006.48 1006.73 1006.96 1007.18 1007.41 1007.65 1007.92 1008.21 1008.51 1008.83 1009.14 1009.43 1009.70 1009.93 1010.13 1010.28 1010.39 1010.47 1010.52 1010.55 1010.56 1010.56 1010.55 1010.55 1010.54 1010.53 1010.51 1010.48 1010.44 1010.38 1010.30 1010.22 1010.14 1010.07 1010.02
1002.65 1003.04 1003.46 1003.90 1004.34 1004.76 1005.15 1005.49 1005.80 1006.07 1006.32 1006.55 1006.79 1007.03 1007.28 1007.55 1007.83 1008.10 1008.37 1008.63 1008.87 1009.09 1009.29 1009.48 1009.64 1009.78 1009.91 1010.03 1010.14 1010.24 1010.32 1010.39 1010.45 1010.48 1010.49 1010.48 1010.44 1010.38 1010.29 1010.20 1010.10 1010.01 1009.95
1002.00 1002.36 1002.78 1003.21 1003.65 1004.06 1004.45 1004.79 1005.10 1005.39 1005.65 1005.90 1006.15 1006.40 1006.65 1006.91 1007.16 1007.40 1007.63 1007.85 1008.05 1008.25 1008.44 1008.62 1008.81 1009.01 1009.20 1009.40 1009.59 1009.78 1009.96 1010.12 1010.25 1010.36 1010.43 1010.46 1010.46 1010.43 1010.36 1010.28 1010.19 1010.11 1010.04
1001.70 1002.01 1002.36 1002.75 1003.13 1003.49 1003.84 1004.15 1004.44 1004.71 1004.98 1005.24 1005.51 1005.77 1006.04 1006.30 1006.54 1006.76 1006.96 1007.14 1007.31 1007.48 1007.64 1007.82 1008.02 1008.23 1008.47 1008.72 1008.99 1009.25 1009.51 1009.75 1009.97 1010.15 1010.29 1010.39 1010.45 1010.47 1010.45 1010.41 1010.35 1010.28 1010.22
1001.81 1002.02 1002.29 1002.57 1002.85 1003.12 1003.38 1003.62 1003.85 1004.09 1004.35 1004.61 1004.89 1005.18 1005.47 1005.74 1005.99 1006.21 1006.41 1006.57 1006.72 1006.86 1007.00 1007.16 1007.36 1007.58 1007.83 1008.11 1008.42 1008.73 1009.04 1009.34 1009.62 1009.87 1010.09 1010.26 1010.39 1010.47 1010.52 1010.53 1010.51 1010.48 1010.43
1002.30 1002.41 1002.54 1002.68 1002.83 1002.96 1003.09 1003.23 1003.38 1003.57 1003.79 1004.04 1004.34 1004.65 1004.97 1005.27 1005.55 1005.80 1006.00 1006.17 1006.32 1006.45 1006.59 1006.74 1006.92 1007.13 1007.39 1007.67 1007.98 1008.31 1008.65 1008.98 1009.30 1009.60 1009.86 1010.09 1010.28 1010.43 1010.54 1010.60 1010.64 1010.64 1010.62
Thickness
5760 5760 5759 5759 5759 5758 5758 5757 5757 5757 5756 5756 5756 5756 5755 5755 5755 5755 5755 5754 5753 5752 5751 5750 5748 5746 5744 5743 5742 5740 5738 5737 5735 5734 5733 5731 5730 5729 5728 5727 5726 5724 5723
5762 5761 5760 5760 5759 5759 5759 5758 5758 5757 5757 5757 5757 5757 5757 5757 5756 5756 5755 5754 5753 5752 5751 5750 5749 5747 5745 5744 5742 5741 5739 5738 5736 5734 5733 5732 5730 5729 5728 5727 5726 5724 5723
5764 5763 5761 5761 5760 5760 5760 5759 5759 5758 5757 5757 5757 5758 5758 5758 5757 5757 5756 5755 5754 5753 5752 5751 5750 5748 5746 5745 5743 5742 5740 5739 5737 5735 5734 5732 5731 5729 5728 5727 5726 5725 5723
5765 5764 5762 5761 5761 5760 5760 5759 5758 5757 5756 5756 5756 5758 5759 5759 5759 5758 5757 5756 5755 5754 5753 5752 5751 5749 5747 5746 5745 5743 5741 5740 5738 5736 5735 5733 5731 5730 5729 5727 5726 5725 5724
5767 5766 5764 5763 5762 5761 5760 5759 5758 5757 5755 5755 5756 5758 5759 5759 5759 5759 5758 5757 5756 5755 5754 5753 5752 5751 5749 5748 5746 5744 5742 5741 5739 5737 5735 5734 5732 5731 5729 5728 5727 5725 5724
5769 5767 5766 5764 5763 5761 5759 5758 5757 5757 5756 5755 5756 5757 5758 5759 5760 5760 5759 5758 5757 5756 5755 5754 5753 5752 5751 5749 5748 5746 5744 5742 5740 5739 5737 5735 5733 5732 5730 5729 5727 5726 5725
5770 5769 5767 5765 5764 5761 5759 5758 5757 5755 5754 5755 5752 5751 5754 5758 5758 5759 5758 5757 5757 5756 5756 5754 5754 5752 5752 5750 5749 5748 5746 5744 5742 5740 5738 5736 5735 5733 5731 5730 5728 5727 5726
5772 5771 5768 5766 5765 5762 5760 5759 5757 5753 5753 5753 5749 5744 5741 5745 5752 5757 5757 5756 5756 5756 5755 5755 5754 5753 5751 5750 5749 5748 5746 5744 5743 5741 5739 5737 5735 5734 5732 5731 5729 5728 5726
5774 5772 5770 5768 5766 5763 5760 5759 5757 5754 5750 5751 5751 5745 5737 5734 5741 5749 5753 5754 5754 5754 5753 5753 5753 5752 5750 5749 5748 5746 5745 5744 5743 5741 5739 5737 5735 5734 5732 5731 5730 5728 5727
5775 5773 5771 5769 5766 5764 5761 5760 5759 5756 5752 5749 5750 5750 5747 5744 5738 5738 5745 5750 5751 5751 5751 5752 5751 5750 5749 5747 5746 5745 5744 5743 5742 5740 5738 5736 5735 5733 5732 5731 5729 5728 5726
5775 5774 5772 5769 5766 5764 5762 5760 5759 5757 5755 5751 5749 5748 5746 5744 5743 5736 5735 5741 5745 5748 5749 5750 5749 5748 5747 5746 5745 5743 5742 5741 5740 5738 5736 5734 5733 5732 5731 5730 5728 5727 5725
5774 5773 5771 5769 5766 5764 5762 5761 5759 5757 5755 5753 5751 5748 5745 5742 5740 5737 5734 5735 5737 5743 5746 5747 5746 5745 5745 5744 5744 5742 5740 5738 5737 5735 5734 5732 5730 5729 5728 5727 5726 5724 5723
5772 5771 5771 5768 5766 5765 5763 5761 5758 5756 5755 5753 5751 5749 5748 5746 5744 5741 5736 5734 5734 5738 5741 5743 5744 5743 5742 5742 5741 5740 5738 5736 5734 5732 5731 5729 5727 5726 5725 5724 5723 5721 5720
5774 5773 5771 5768 5766 5765 5763 5760 5757 5755 5754 5752 5751 5749 5748 5747 5746 5743 5739 5734 5730 5731 5734 5737 5740 5741 5740 5738 5737 5736 5734 5733 5732 5730 5727 5726 5724 5723 5721 5720 5718 5716 5716
5775 5772 5770 5767 5765 5763 5761 5758 5755 5754 5752 5751 5749 5748 5747 5746 5745 5744 5742 5738 5731 5725 5726 5732 5734 5737 5736 5735 5734 5732 5731 5729 5728 5726 5724 5722 5720 5719 5717 5715 5714 5712 5711
5773 5770 5768 5766 5764 5762 5760 5756 5754 5752 5750 5748 5747 5746 5745 5744 5743 5742 5740 5739 5736 5730 5725 5730 5731 5732 5732 5731 5730 5728 5727 5725 5723 5722 5720 5718 5716 5714 5712 5711 5709 5708 5707
5770 5768 5766 5764 5761 5759 5757 5754 5752 5750 5748 5746 5744 5743 5742 5742 5740 5739 5738 5736 5734 5731 5725 5727 5729 5729 5728 5727 5725 5724 5722 5720 5719 5718 5716 5714 5712 5710 5708 5706 5704 5703 5702
5767 5765 5764 5761 5758 5756 5754 5751 5749 5748 5745 5743 5741 5739 5738 5738 5737 5736 5735 5733 5731 5730 5725 5721 5722 5722 5723 5722 5721 5719 5718 5716 5714 5713 5712 5710 5708 5706 5704 5702 5700 5698 5697
5763 5762 5761 5758 5755 5753 5751 5749 5747 5745 5743 5741 5739 5737 5735 5734 5732 5732 5732 5731 5730 5729 5725 5720 5719 5718 5718 5717 5715 5714 5713 5711 5710 5709 5706 5705 5703 5701 5700 5698 5696 5694 5692
5759 5758 5757 5755 5753 5750 5748 5745 5743 5741 5739 5738 5737 5735 5734 5732 5730 5729 5728 5728 5727 5724 5721 5717 5715 5714 5713 5713 5710 5707 5705 5705 5704 5703 5701 5700 5698 5696 5695 5693 5691 5689 5687
5756 5755 5752 5750 5748 5746 5744 5741 5739 5737 5735 5734 5733 5732 5731 5731 5730 5728 5726 5724 5722 5719 5715 5713 5710 5709 5707 5706 5704 5704 5701 5699 5697 5697 5694 5693 5692 5690 5689 5687 5686 5684 5683
5750 5749 5747 5745 5742 5742 5740 5738 5736 5733 5731 5729 5727 5727 5727 5727 5726 5725 5724 5723 5720 5716 5712 5709 5706 5704 5704 5703 5702 5699 5695 5691 5689 5691 5688 5686 5685 5684 5683 5682 5681 5680 5678
5743 5742 5741 5739 5737 5736 5735 5733 5731 5729 5726 5724 5723 5722 5722 5723 5722 5721 5719 5718 5716 5715 5713 5709 5704 5703 5701 5701 5698 5694 5691 5689 5687 5688 5683 5680 5679 5678 5679 5678 5677 5676 5674
5735 5733 5732 5732 5730 5729 5727 5725 5724 5722 5720 5719 5718 5717 5716 5716 5716 5714 5713 5711 5710 5709 5709 5706 5704 5703 5702 5700 5697 5693 5689 5686 5683 5682 5680 5675 5675 5674 5675 5674 5673 5671 5669
5727 5726 5725 5724 5722 5721 5720 5718 5716 5713 5712 5711 5711 5711 5711 5709 5709 5708 5705 5703 5702 5702 5703 5702 5701 5699 5697 5695 5693 5688 5683 5678 5675 5674 5674 5671 5670 5668 5668 5668 5668 5666 5664
5721 5719 5717 5715 5713 5712 5711 5710 5708 5705 5703 5702 5702 5703 5703 5702 5702 5700 5697 5696 5694 5694 5694 5694 5693 5692 5690 5689 5687 5684 5680 5675 5671 5669 5671 5667 5665 5662 5659 5662 5662 5660 5657